Weather History for PAWD - December, 2012

Change the Weather History Date:

Thursday, December 27, 2012

  Actual Average Record
Temperature  
Mean Temperature 36 °F -  
Max Temperature 39 °F 33 °F 46 °F (1951)
Min Temperature 33 °F 24 °F -4 °F (1961)
Degree Days  
Heating Degree Days 29    
Moisture  
Dew Point 32 °F    
Average Humidity 87    
Maximum Humidity 96    
Minimum Humidity 73    
Precipitation  
Precipitation 0.76 in - - ()
Sea Level Pressure  
Sea Level Pressure 29.30 in    
Wind  
Wind Speed 3 mph (NNW)    
Max Wind Speed 8 mph    
Max Gust Speed -    
Visibility 10 miles    
Events Rain    
Averages and records for this station are not official NWS values.
T = Trace of Precipitation, MM = Missing Value Source: NWS Daily Summary

Daily Weather History Graph

Daily Weather History Graph

Search for Another Location

Airport or City:

Trip Planner

Search our weather history database for the weather conditions in past years. The results will help you decide how hot, cold, wet, or windy it might be!

Date:

Astronomy

Dec. 27, 2012 Rise Set
Actual Time 10:02 AM AKST 3:56 PM AKST
Civil Twilight 9:04 AM AKST 4:53 PM AKST
Nautical Twilight 8:07 AM AKST 5:50 PM AKST
Astronomical Twilight 7:15 AM AKST 6:42 PM AKST
Moon 4:00 PM AKST (12/27) 9:09 AM AKST (12/27)
Length of Visible Light 7h 49m
Length of Day
5h 53m
Full, 100% of the Moon is Illuminated
Dec 27
Full
Dec 28
Full
Jan 4
Last Quarter
Jan 11
New
Jan 18
First Quarter

Hourly Weather History & Observations

Time (AKST) Temp. Windchill Dew Point Humidity Pressure Visibility Wind Dir Wind Speed Gust Speed Precip Events Conditions
12:09 AM 35.6 °F - 33.8 °F 93% 29.29 in 10.0 mi Calm Calm - 0.03 in Rain Light Rain
12:53 AM 36.0 °F 30.3 °F 33.1 °F 89% 29.29 in 10.0 mi NW 6.9 mph - 0.12 in   Overcast
1:53 AM 37.9 °F 33.5 °F 32.0 °F 79% 29.28 in 10.0 mi Variable 5.8 mph - 0.11 in   Overcast
3:53 AM 36.0 °F - 32.0 °F 86% 29.27 in 10.0 mi Calm Calm - 0.06 in Rain Light Rain
4:53 AM 39.0 °F 36.8 °F 30.9 °F 73% 29.26 in 10.0 mi WNW 3.5 mph - 0.05 in   Overcast
5:53 AM 37.9 °F 35.5 °F 30.9 °F 76% 29.25 in 10.0 mi NNW 3.5 mph - 0.05 in   Overcast
6:53 AM 36.0 °F 33.3 °F 32.0 °F 86% 29.25 in 10.0 mi Variable 3.5 mph - 0.04 in   Overcast
7:53 AM 36.0 °F 32.1 °F 32.0 °F 86% 29.24 in 10.0 mi NW 4.6 mph - 0.04 in   Overcast
8:53 AM 35.1 °F - 32.0 °F 89% 29.25 in 10.0 mi Calm Calm - 0.04 in   Overcast
9:53 AM 37.9 °F 32.1 °F 30.9 °F 76% 29.26 in 10.0 mi North 8.1 mph - 0.04 in   Overcast
10:53 AM 37.9 °F 32.1 °F 30.9 °F 76% 29.27 in 10.0 mi North 8.1 mph - 0.03 in Rain Light Rain
11:53 AM 37.9 °F 33.5 °F 30.9 °F 76% 29.28 in 10.0 mi NW 5.8 mph - 0.02 in   Overcast
12:53 PM 37.9 °F 34.4 °F 30.9 °F 76% 29.27 in 10.0 mi North 4.6 mph - 0.01 in   Overcast
1:53 PM 37.0 °F 31.0 °F 33.1 °F 86% 29.27 in 10.0 mi North 8.1 mph - 0.01 in   Overcast
2:53 PM 37.0 °F 32.4 °F 33.1 °F 86% 29.28 in 10.0 mi South 5.8 mph - N/A   Overcast
3:53 PM 36.0 °F 33.3 °F 34.0 °F 93% 29.31 in 10.0 mi East 3.5 mph - 0.01 in Rain Light Rain
4:53 PM 34.0 °F - 33.1 °F 96% 29.33 in 10.0 mi Calm Calm - 0.01 in Rain Light Rain
5:53 PM 35.1 °F - 34.0 °F 96% 29.33 in 10.0 mi Calm Calm - 0.01 in   Overcast
6:53 PM 34.0 °F - 33.1 °F 96% 29.35 in 10.0 mi Calm Calm - 0.01 in   Overcast
7:53 PM 33.1 °F 30.0 °F 32.0 °F 96% 29.35 in 10.0 mi NW 3.5 mph - 0.01 in   Overcast
8:53 PM 34.0 °F 31.0 °F 32.0 °F 92% 29.36 in 10.0 mi Variable 3.5 mph - 0.01 in   Overcast
9:53 PM 34.0 °F - 32.0 °F 92% 29.38 in 10.0 mi Calm Calm - 0.02 in   Overcast
10:53 PM 34.0 °F - 33.1 °F 96% 29.40 in 9.0 mi Calm Calm - 0.02 in   Overcast
11:53 PM 34.0 °F - 32.0 °F 92% 29.42 in 9.0 mi Calm Calm - 0.04 in   Overcast